{"data":{"norad_id":61547,"intl_designator":"2024-184R","name":"STARLINK-32411","alt_names":[],"object_type":"PAYLOAD","status":"ACTIVE","operator":null,"country":"US","launch_date":"2024-10-15","launch_site_code":"AFWTR","launch_vehicle":null,"mission":null,"orbit_class":"UNKNOWN","rcs_meters":null,"size_class":null,"mass_kg":null,"dimensions":null,"purposes":["comms"],"wikipedia_slug":null,"has_3d_model":false,"image_url":null,"decayed_at":null,"tle_current":{"epoch":"2026-05-25T00:36:58.457376Z","epoch_age_seconds":76129,"freshness":"FRESH","line1":"1 61547U 24184R   26145.02567659  .00000476  00000+0  28184-4 0  9993","line2":"2 61547  53.1613  19.4179 0001146  96.9340 263.1791 15.30192142 90194","mean_motion":15.30192142,"eccentricity":0.0001146,"inclination_deg":53.1613,"raan_deg":19.4179,"arg_perigee_deg":96.934,"mean_anomaly_deg":263.1791,"bstar":2.8184e-5,"rev_number":9019,"period_min":94.105828965889,"perigee_km":474.45313525534,"apogee_km":476.02392892729,"semimajor_km":6853.3755320913,"source":"CELESTRAK","updated_at":"2026-05-25T13:38:19.400205Z"}}}